Погода в Араракуара

Колумбия     0°39′22″N   72°13′50″W
темп.,
°C
ветер,
м/с
пор.,
м/с
влажн.,
%
обл.,
%
осадки,
мм/ч
давл.,
гПа
погр.,
м
17 мая, пн
пн1701:00+22ююз1199100 0.8 101217
04:00+22ююз11100100 6.0 101234
07:00+22вюв1210098 7.4 1014108
10:00+22св01100100 28.1 1014113
13:00+22св13100100 93.8 1014185
16:00+22ссв1599100 1.1 1012283
19:00+21ссз13100100 1.1 1013113
22:00+21зюз1199100 0.0 101521
18 мая, вт
вт1801:00+21зюз009996 0.0 101322
04:00+21зюз01100100 0.0 101323
07:00+22зсз019887 0.0 1015103
10:00+28з106895 0.1 10161000
13:00+30сз115842 1.0 10121388
16:00+27юз12785 1.1 1010493
19:00+22зюз1197100 2.1 101211
22:00+22зюз119898 0.4 101518
19 мая, ср
ср1901:00+21юз129985 0.4 101364
04:00+21зюз1198100 0.0 101236
07:00+21юз0098100 0.1 101422
10:00+25ссв128588 0.5 1015418
13:00+24ссв139696 3.2 1013300
16:00+23всв1498100 0.1 1011250
19:00+22св13100100 0.1 1012131
22:00+21ссв1199100 0.0 101318
20 мая, чт
чт2001:00+21с11100100 0.0 101230
04:00+20ссв119995 0.0 101119
07:00+21с1296100 0.0 1013101
10:00+28св126754 0.0 1014643
13:00+28в127314 1.3 10111026
16:00+26вюв139491 3.3 1009251
19:00+23вюв119719 4.4 101111
22:00+22с009896 0.0 101211
21 мая, пт
пт2101:00+21вюв119919 0.0 101213
04:00+21св119927 0.0 101125
07:00+22с129622 0.0 1013120
10:00+30ссв126113 0.0 1013971
13:00+32в125680 0.7 10091587
16:00+27зюз118599 0.8 100767
19:00+23всв119531 1.4 101011
22:00+22сз00996 1.5 101212